Showing default

QIANFAN-34, 61567

Orbit data source: Space-Track

QIANFAN-34, 61567 is a Chinese payload satellite in LEO that was launched on Tue, 15 Oct 2024 UTC via a CHANG ZHENG 6A launch vehicle from the Taiyaun Space Center, China (TSC). Payload-class satellites include a variety of spacecraft equipped with specific instruments for various scientific and technological missions. These include communications satellites like Starlink; space stations such as the ISS; scientific satellites like the Hubble; Earth observation satellites from companies like Planet Labs, Umbra, and HawkEye 360; GPS; miniature CubeSats for education and research; and military/defense satellites.

Loading next visibility...
Identifier
61567, 2024-185R
Orbit
LEO
Country
Flag of CNCN / PRC
Related business
Manufacturer
GESIH/SECM
Mission
Operational Commercial Communications
Bus & Motor
QIANFAN, Unknown motor
Mass
267 kg wet, ~267 kg dry
Launch date (UTC)
2024-10-15 (1 year ago)
Launch vehicle
CHANG ZHENG 6A
Launch site
Taiyaun Space Center, China (TSC)
Object type
Payload
Rocket body
Debris
Shape & HBR
Box + 1 Pan, 5.0 m
Radar Cross Section
13.200 m², Large (>1 m²)

Expand to show TLE details & history
Last TLE update: 13 hours ago

TLE from 13 hours ago
0 QIANFAN-34
1 61567U 24185R   25286.64320344  .00000597  00000-0  38123-3 0  9995
2 61567  88.9723  85.1484 0007037 143.5508 216.6152 14.02224090 60932
Epoch: 2025-10-13T15:26Z
TLE epoch observation values (Epoch: 2025-10-13T15:26:12.777Z)
Latitude
-0.00005°
Longitude
-168.84788°
Altitude
893.236 km
Speed
7.403 km/s
True Right ascension
05h 40m 35s
True Declination
0° 00' 00"
Sunlit
Object was in daylight at epoch
Visualization orbit readout
Latitude
Unknown
Longitude
Unknown
Altitude
Unknown
Speed
Unknown
Apparent Right ascension
Unknown
Apparent Declination
Unknown
Sunlit
N/A
Visualization observer readout
Local Sidereal Time
22:30:28
Azimuth
Unknown
Elevation
Unknown
Doppler factor
Unknown
Orbital elements
Apogee altitude
888.19 km
Perigee altitude
877.971 km
Semi-major axis
7,261.218 km
Eccentricity
0.0007
Inclination
88.9723°
RAAN
85.1484°
Arg. of periapsis
143.5508°
True anomaly
216.56714°
Mean anomaly
216.6152°
Eccentric anomaly
216.59117°
Mean motion
3.50775 °/min
Orbital period
102.63 mins
BSTAR
0.00038123
Loading maneuver chart data...
Computing Atmospheric mass density...
Loading historical data...
Loading historical data...
Loading historical data...
Loading historical data...
Loading historical data...
Loading historical data...
Loading historical data...

Documentation

Showing up to 5 results
|